Location: Unspecified
(0.0000°N, 0.0000°E)
Time: 08:59:17
(UTC+00:00)

Vanguard 2 - Pass Details

Date: 28 October 2021
Orbit: 554 x 2936 km, 32.9° (Epoch: 06 December)

Event Time Altitude Azimuth Distance (km) Brightness Sun altitude
Rises 15:48:57 0° 204° (SSW) 4,693 12.1 27.9°
Reaches altitude 10° 15:54:55 10° 176° (S) 4,292 11.5 26.4°
Maximum altitude 15:59:25 13° 153° (SSE) 4,469 11.4 25.3°
Drops below altitude 10° 16:04:35 10° 132° (SE) 5,062 11.5 24.1°
Sets 16:13:25 0° 107° (ESE) 6,548 11.8 21.9°
